星链-32290 (STARLINK-32290)

导读

STARLINK-32290是美国SpaceX公司星链星座的一员,于2024年8月4日发射入轨,部署于近地轨道。作为第二代星链卫星,它服务于星链全球宽带互联网组网目标,可为偏远欠发达地区提供高速低延迟网络接入,同时也具备潜在的军事应用潜力,助力星链构建覆盖全球的天基通信基础设施,推动低轨卫星互联网发展。

Basic Information
目录编号:
60359
目录名称:
STARLINK-32290
国际标识:
2024-138E
轨道中心:
EARTH
卫星名称:
星链-32290 (STARLINK-32290)
卫星全名:
星链-32290 (STARLINK-32290)
卫星状态:
在轨 (已飞行682 天)
发射日期:
2024-08-04 UTC
国别 :
美国 (US)
星等 :
--
Orbit Information
数据来源 国际轨道数据 AOE轨道数据
星历时间 2026-06-17T18:18:56+0800
7小时前
查看轨道信息
2026-06-17T03:00:00+0800
23小时前
查看轨道信息
半长轴 6853.377km 6853.349km
偏心率 0.0001252 0.00013
轨道倾角 53.159° 53.157°
近地点辐角 79.171° 82.336°
升交点赤经 206.655° 209.619°
平近点角 280.943° 0.492°
近地点 474.381km 474.321km
远地点 476.099km 476.103km
周期 94.106分钟 94.105分钟
每日圈数 15.301919 15.302013
Detailed Information
卫星平台:
Starlink v2.0 mini
运营商:
太空探索技术公司
运营商所在国:
美国
制造商(研发单位):
太空探索技术公司
制造商所在国:
美国
使用方式:
暂无
Satellite Introduction
星链(Starlink)计划是由太空探索技术公司(SpaceX)提出的一个巨型低轨卫星互联网星座项目,计划在2019年至2024年间在太空搭建由约1.2万颗卫星组成的“星链”网络,其中1584颗将部署在地球上空550千米处的近地轨道,并从2020年开始工作。该卫星仍在工作。
2D Orbit Map
3D Orbit Map
Orbit Altitude Analysis Chart
Orbit Inclination Analysis Chart
Orbit Comprehensive Analysis Chart
View Comprehensive Chart